Simultaneous Nadir Overpasses (SNOs) Predictions

Prediction of SNOs between NOAA-19 and NPP Satellite Orbit:

Table of predicted SNOs for the next 14.0 days since TLE Epoch: 6/10/2015
Index Date (NOAA-19) Time (NOAA-19) Lat,Lon (NOAA-19) SZA (NOAA-19 ) Date (NPP) Time (NPP) Lat,Lon (NPP) SZA (NPP ) Distance(km) Time Diff (sec)
1 06/14/2015 04:58:59 81.03, 52.83 61.48 06/14/2015 04:59:58 81.04, 52.66 61.47 3.09 59
2 06/14/2015 05:49:54 -81.02,-139.55 118.58 06/14/2015 05:50:42 -81.02,-139.73 118.58 3.03 48
3 06/14/2015 06:41:01 81.02, 27.57 61.44 06/14/2015 06:41:27 81.02, 27.61 61.42 0.74 26
4 06/14/2015 07:31:57 -81.02,-165.19 118.56 06/14/2015 07:32:12 -81.03,-165.15 118.58 0.80 15
5 06/14/2015 08:23:03 81.02, 2.30 61.40 06/14/2015 08:22:57 81.03, 2.18 61.42 2.07 6
6 06/14/2015 09:13:59 -81.02, 169.54 118.60 06/14/2015 09:13:42 -81.03, 169.43 118.57 2.05 17
7 06/14/2015 10:05:05 81.02, -22.96 61.37 06/14/2015 10:04:26 81.01, -22.87 61.37 1.77 39
8 06/14/2015 10:56:01 -81.02, 144.28 118.63 06/14/2015 10:55:11 -81.01, 144.37 118.62 1.77 50




NCC Satellite Simultaneous Nadir Overpasses (SNOs) Prediction Service
